Tracking 18795 objects as of 24-August-2017
HD Live streaming from Space Station
objects crossing your sky now

CZ-4C DEB

Track CZ-4C DEB now!
10-day predictions


NORAD ID: 38305
Int'l Code: 2010-009J
Perigee: 1,207.1 km
Apogee: 1,332.8 km
Inclination: 63.5 °
Period: 110.8 minutes
Semi major axis: 7640 km
RCS: 0.0013 m2 (small)
Launch date: March 5, 2010
Source: People's Republic of China (PRC)
Launch site: Jiuquan Satellite Launch Center, China (JSC)

Note: This is SATELLITE DEBRIS
Your satellite tracking list
Your tracking list is empty





NASA's NSSDC Master Catalog

Two Line Element Set (TLE):
1 38305U 10009J   17235.51956288 -.00000053 +00000-0 +83625-4 0  9998
2 38305 063.4967 219.4928 0082233 078.2749 012.4442 12.99813905189244
Source of the keplerian elements: AFSPC